GSAT-15

Last updated on Tue Sep 22 2026 00:03:13 GMT+0000 (Coordinated Universal Time)

1 41028U 15065A 26264.57885774 -.00000262 00000+0 00000+0 0 9992 2 41028 0.0157 232.5500 0001991 285.6988 144.0834 1.00272290 39765
UTC large
Height (km)
Speed (km/s)
/
Latitude / Longitude
Inclination (degrees)
Orbital Period (minutes)
Azimuth
Elevation
Range (km)
Doppler Factor

Next 0 passes for location: London (51.5072 / 0.1276)

No passes found over London.
GSAT-15